Simultaneous Nadir Overpasses (SNOs) Predictions

Prediction of SNOs between LANDSAT-8 and METOP-A Satellite Orbit:

Table of predicted SNOs for the next 14.0 days since TLE Epoch: 1/11/2020
Index Date (LANDSAT-8) Time (LANDSAT-8) Lat,Lon (LANDSAT-8) SZA (LANDSAT-8 ) Date (METOP-A) Time (METOP-A) Lat,Lon (METOP-A) SZA (METOP-A ) Distance(km) Time Diff (sec)
1 01/13/2020 16:59:54 -81.49, 151.46 74.76 01/13/2020 16:58:42 -81.48, 151.51 74.79 0.79 72
2 01/13/2020 17:49:20 81.49, -40.83 105.25 01/13/2020 17:49:22 81.48, -40.92 105.24 1.76 2
3 01/13/2020 18:38:34 -81.68, 132.01 74.10 01/13/2020 18:39:46 -81.37, 133.12 74.15 39.02 72
4 01/16/2020 12:34:10 -81.47,-142.36 75.32 01/16/2020 12:33:05 -81.48,-142.21 75.33 2.79 65
5 01/16/2020 13:23:36 81.48, 25.33 104.68 01/16/2020 13:23:45 81.48, 25.34 104.69 0.72 9
6 01/19/2020 08:08:25 -81.48, -75.73 75.88 01/19/2020 08:07:27 -81.48, -75.54 75.88 3.21 58
7 01/19/2020 08:57:51 81.48, 91.93 104.13 01/19/2020 08:58:07 81.48, 91.99 104.14 1.07 16
8 01/22/2020 03:42:40 -81.48, -9.44 76.52 01/22/2020 03:41:49 -81.48, -9.29 76.52 2.57 51
9 01/22/2020 04:32:06 81.48, 158.21 103.48 01/22/2020 04:32:29 81.48, 158.22 103.49 0.53 23
10 01/24/2020 23:16:55 -81.49, 57.30 77.15 01/24/2020 23:16:11 -81.48, 57.34 77.17 1.27 44




NCC Satellite Simultaneous Nadir Overpasses (SNOs) Prediction Service
